Latest Coastal Weather Observations for Bunbury

IDW60701

Issued at 10:13 pm WST Sunday 20 May 2018 (issued every 10 minutes, with the page automatically refreshed every 10 minutes)

About coastal observations | Map of coastal stations | Coastal observations for WA | Marine services | Other Formats
Station Details ID: 009965 Name: BUNBURY Lat: -33.36 Lon: 115.64 Height: 5.2 m
Data from the previous 72 hours. | See also: Recent months at Bunbury
Date/Time
WST
Temp
°C
Wind Pressure Rain since
9am
mm
Weather Cloud Vis
km
Sea
Height
m
Swell
Dir  Spd
kts
Gust
kts
hPa Trend Height
m
Period
s
Dir
20/10:00pm 8.2 SE 1 2 1027.9 - 0.0 - - - - - - -
20/09:30pm 7.2 ENE 2 3 1027.9 - 0.0 - - - - - - -
20/09:00pm 7.8 CALM 0 0 1027.8 - 0.0 - - - - - - -
20/08:30pm 8.5 CALM 0 0 1027.7 - 0.0 - - - - - - -
20/08:00pm 9.2 CALM 0 0 1027.7 - 0.0 - - - - - - -
20/07:30pm 10.2 SE 2 3 1027.6 - 0.0 - - - - - - -
20/07:00pm 11.2 CALM 0 0 1027.5 - 0.0 - - - - - - -
20/06:30pm 12.3 CALM 0 0 1027.2 - 0.0 - - - - - - -
20/06:00pm 13.8 CALM 0 0 1026.9 - 0.0 - - - - - - -
20/05:30pm 16.2 CALM 0 0 1026.8 - 0.0 - - - - - - -
20/05:00pm 19.5 SSW 2 3 1026.7 - 0.0 - - - - - - -
20/04:30pm 20.7 WSW 3 4 1026.7 - 0.0 - - - - - - -
20/04:00pm 21.4 W 3 5 1026.7 - 0.0 - - - - - - -
20/03:30pm 21.5 W 5 6 1026.7 - 0.0 - - - - - - -
20/03:00pm 21.8 WNW 5 7 1026.9 - 0.0 - - - - - - -
20/02:30pm 21.8 WNW 6 9 1027.0 - 0.0 - - - - - - -
20/02:00pm 22.0 NW 6 8 1027.1 - 0.0 - - - - - - -
20/01:30pm 21.9 NW 6 10 1027.4 - 0.0 - - - - - - -
20/01:00pm 22.1 NNW 7 10 1027.9 - 0.0 - - - - - - -
20/12:30pm 21.4 N 8 11 1028.3 - 0.0 - - - - - - -
20/12:00pm 21.5 N 8 10 1028.8 - 0.0 - - - - - - -
20/11:30am 21.0 NNE 7 9 1029.3 - 0.0 - - - - - - -
20/11:00am 20.8 NNE 5 8 1029.6 - 0.0 - - - - - - -
20/10:30am 19.6 NNE 5 8 1029.7 - 0.0 - - - - - - -
20/10:00am 18.8 NE 4 7 1029.8 - 0.0 - - - - - - -
20/09:30am 15.7 ENE 2 3 1029.9 - 0.0 - - - - - - -
20/09:00am 11.8 E 2 3 1029.8 - 0.0 - - - - - - -
20/08:30am 9.1 ESE 1 2 1029.6 - 0.0 - - - - - - -
20/08:00am 5.6 ENE 1 3 1029.2 - 0.0 - - - - - - -
20/07:30am 3.2 CALM 0 0 1029.0 - 0.0 - - - - - - -
20/07:00am 3.2 CALM 0 0 1028.6 - 0.0 - - - - - - -
20/06:30am 4.1 CALM 0 0 1028.4 - 0.0 - - - - - - -
20/06:00am 3.8 ESE 1 2 1028.3 - 0.0 - - - - - - -
20/05:30am 3.5 CALM 0 0 1028.1 - 0.0 - - - - - - -
20/05:00am 3.7 SSW 1 2 1028.1 - 0.0 - - - - - - -
20/04:30am 4.2 CALM 0 0 1028.1 - 0.0 - - - - - - -
20/04:00am 4.1 CALM 0 0 1028.0 - 0.0 - - - - - - -
20/03:30am 4.6 CALM 0 0 1027.8 - 0.0 - - - - - - -
20/03:00am 5.0 CALM 0 1 1027.8 - 0.0 - - - - - - -
20/02:30am 4.6 S 1 1 1027.8 - 0.0 - - - - - - -
20/02:00am 5.2 CALM 0 2 1027.8 - 0.0 - - - - - - -
20/01:30am 6.3 CALM 0 0 1027.7 - 0.0 - - - - - - -
20/01:00am 6.1 CALM 0 0 1027.5 - 0.0 - - - - - - -
20/12:30am 6.9 CALM 0 1 1027.6 - 0.0 - - - - - - -
20/12:00am 7.6 CALM 0 0 1027.7 - 0.0 - - - - - - -
 
Date/Time
WST
Temp
°C
Wind Pressure Rain since
9am
mm
Weather Cloud Vis
km
Sea
Height
m
Swell
Dir  Spd
kts
Gust
kts
hPa Trend Height
m
Period
s
Dir
19/11:30pm 6.2 CALM 0 0 1027.6 - 0.0 - - - - - - -
19/11:00pm 7.5 CALM 0 0 1027.7 - 0.0 - - - - - - -
19/10:30pm 8.1 E 2 2 1027.8 - 0.0 - - - - - - -
19/10:00pm 9.0 E 2 3 1027.8 - 0.0 - - - - - - -
19/09:30pm 8.9 CALM 0 0 1028.1 - 0.0 - - - - - - -
19/09:00pm 10.0 CALM 0 0 1028.2 - 0.0 - - - - - - -
19/08:30pm 9.9 SSE 1 2 1028.2 - 0.0 - - - - - - -
19/08:00pm 10.9 S 1 2 1028.0 - 0.0 - - - - - - -
19/07:30pm 12.1 SSW 2 3 1027.7 - 0.0 - - - - - - -
19/07:00pm 13.4 SSW 4 5 1027.5 - 0.0 - - - - - - -
19/06:30pm 12.8 SSW 2 3 1027.1 - 0.0 - - - - - - -
19/06:00pm 14.6 SSW 2 3 1027.0 - 0.0 - - - - - - -
19/05:30pm 16.9 SSW 3 5 1026.8 - 0.0 - - - - - - -
19/05:00pm 18.6 SW 3 4 1026.8 - 0.0 - - - - - - -
19/04:30pm 19.6 WSW 4 5 1026.6 - 0.0 - - - - - - -
19/04:00pm 20.3 W 5 6 1026.5 - 0.0 - - - - - - -
19/03:30pm 20.5 W 5 7 1026.5 - 0.0 - - - - - - -
19/03:00pm 21.1 WNW 5 8 1026.5 - 0.0 - - - - - - -
19/02:30pm 21.4 WNW 5 7 1026.5 - 0.0 - - - - - - -
19/02:00pm 21.4 NW 6 8 1026.5 - 0.0 - - - - - - -
19/01:30pm 21.5 NW 6 8 1026.7 - 0.0 - - - - - - -
19/01:00pm 21.3 WNW 6 7 1027.0 - 0.0 - - - - - - -
19/12:30pm 21.4 NNW 6 9 1027.4 - 0.0 - - - - - - -
19/12:00pm 21.9 N 4 8 1027.7 - 0.0 - - - - - - -
19/11:30am 20.9 NNE 5 8 1028.1 - 0.0 - - - - - - -
19/11:00am 20.3 NNE 6 9 1028.6 - 0.0 - - - - - - -
19/10:30am 20.3 N 6 10 1028.9 - 0.0 - - - - - - -
19/10:00am 18.8 NE 5 7 1029.1 - 0.0 - - - - - - -
19/09:30am 17.7 ENE 4 6 1029.4 - 0.0 - - - - - - -
19/09:00am 15.0 E 4 6 1029.5 - - - - - - - - -
19/08:30am 12.6 E 3 5 1029.4 - - - - - - - - -
19/08:00am 10.1 E 2 3 1029.4 - - - - - - - - -
19/07:30am 7.7 E 3 4 1029.0 - - - - - - - - -
19/07:00am 6.5 E 2 3 1028.9 - - - - - - - - -
19/06:30am 7.5 E 1 3 1028.7 - - - - - - - - -
19/06:00am 7.9 ESE 3 5 1028.8 - - - - - - - - -
19/05:30am 8.2 ESE 1 3 1028.4 - - - - - - - - -
19/05:00am 7.4 ENE 2 4 1028.2 - - - - - - - - -
19/04:30am 7.0 ESE 2 3 1028.2 - - - - - - - - -
19/04:00am 7.3 ESE 2 4 1028.1 - - - - - - - - -
19/03:30am 7.7 E 4 5 1028.1 - - - - - - - - -
19/03:00am 7.0 ESE 3 4 1028.1 - 0.0 - - - - - - -
19/02:30am 7.9 ESE 2 3 1028.1 - - - - - - - - -
19/02:00am 7.5 ESE 2 3 1028.4 - - - - - - - - -
19/01:30am 7.6 CALM 0 0 1028.3 - - - - - - - - -
19/01:00am 8.2 S 2 4 1028.2 - - - - - - - - -
19/12:30am 8.9 SE 3 4 1028.3 - - - - - - - - -
19/12:00am 9.2 E 2 3 1028.4 - - - - - - - - -
 
Date/Time
WST
Temp
°C
Wind Pressure Rain since
9am
mm
Weather Cloud Vis
km
Sea
Height
m
Swell
Dir  Spd
kts
Gust
kts
hPa Trend Height
m
Period
s
Dir
18/11:30pm 9.1 ESE 3 3 1028.6 - - - - - - - - -
18/11:00pm 8.5 ESE 1 3 1028.7 - - - - - - - - -
18/10:30pm 8.8 S 1 2 1028.9 - - - - - - - - -
18/10:00pm 9.7 CALM 0 0 1029.0 - - - - - - - - -
18/09:30pm 9.9 CALM 0 1 1029.0 - - - - - - - - -
18/09:00pm 11.3 CALM 0 0 1028.9 - 0.0 - - - - - - -
18/08:30pm 12.5 ESE 4 5 1028.8 - - - - - - - - -
18/08:00pm 11.9 ESE 3 3 1028.6 - - - - - - - - -
18/07:30pm 14.8 ESE 4 5 1028.6 - - - - - - - - -
18/07:00pm 15.7 ESE 3 4 1028.5 - - - - - - - - -
18/06:30pm 16.8 ESE 4 4 1028.4 - - - - - - - - -
18/06:00pm 16.4 ESE 3 4 1028.1 - - - - - - - - -
18/05:30pm 18.8 SE 3 3 1028.0 - - - - - - - - -
18/05:00pm 20.3 SE 2 4 1027.9 - - - - - - - - -
18/04:30pm 21.8 SE 4 6 1028.0 - - - - - - - - -
18/04:00pm 22.3 SE 5 7 1028.0 - - - - - - - - -
18/03:30pm 22.6 SE 5 7 1028.0 - - - - - - - - -
18/03:00pm 22.8 SE 3 6 1028.0 - - - - - - - - -
18/02:30pm 22.6 SE 6 9 1028.2 - - - - - - - - -
18/02:00pm 23.3 ENE 6 10 1028.5 - - - - - - - - -
18/01:30pm 22.7 E 8 10 1028.9 - - - - - - - - -
18/01:00pm 23.0 ESE 6 9 1029.1 - - - - - - - - -
18/12:30pm 21.9 E 6 9 1029.7 - - - - - - - - -
18/12:00pm 21.9 E 6 11 1030.3 - - - - - - - - -
18/11:30am 21.4 E 7 12 1030.9 - - - - - - - - -
18/11:00am 20.4 ENE 7 9 1031.4 - - - - - - - - -
18/10:30am 19.0 ESE 6 9 1031.8 - - - - - - - - -
18/10:00am 17.6 E 7 10 1032.0 - - - - - - - - -
18/09:30am 16.4 E 7 10 1032.1 - - - - - - - - -
18/09:00am 14.5 E 7 9 1032.1 - - - - - - - - -
18/08:30am 12.6 E 5 8 1032.0 - - - - - - - - -
18/08:00am 12.3 E 6 8 1031.8 - - - - - - - - -
18/07:30am 10.6 E 5 7 1031.6 - - - - - - - - -
18/07:00am 9.9 ESE 4 5 1031.4 - - - - - - - - -
18/06:30am 9.9 ESE 5 6 1031.1 - - - - - - - - -
18/06:00am 10.6 ESE 3 4 1030.9 - - - - - - - - -
18/05:30am 10.1 SE 4 5 1030.6 - - - - - - - - -
18/05:00am 10.8 E 4 6 1030.5 - - - - - - - - -
18/04:30am 9.7 E 1 2 1030.5 - - - - - - - - -
18/04:00am 9.7 E 4 5 1030.3 - - - - - - - - -
18/03:30am 8.2 E 3 4 1030.4 - - - - - - - - -
18/03:00am 9.1 ESE 1 2 1030.4 - - - - - - - - -
18/02:30am 11.0 ESE 3 3 1030.4 - - - - - - - - -
18/02:00am 11.4 ESE 3 4 1030.3 - - - - - - - - -
18/01:30am 11.8 ESE 4 6 1030.3 - - - - - - - - -
18/01:00am 12.2 SE 5 7 1030.2 - - - - - - - - -
18/12:30am 12.0 SE 5 7 1030.1 - - - - - - - - -
18/12:00am 12.6 SE 6 8 1030.3 - - - - - - - - -
 
Date/Time
WST
Temp
°C
Wind Pressure Rain since
9am
mm
Weather Cloud Vis
km
Sea
Height
m
Swell
Dir  Spd
kts
Gust
kts
hPa Trend Height
m
Period
s
Dir
17/11:30pm 11.2 S 6 7 1030.4 - - - - - - - - -
17/11:00pm 10.9 CALM 0 4 1030.3 - - - - - - - - -
17/10:30pm 11.4 S 1 2 1030.4 - - - - - - - - -

Other Formats:

Comma delimited format used in spreadsheet applications
http://www.bom.gov.au/fwo/IDW60701/IDW60701.94604.axf

JavaScript Object Notation format (JSON) in row-major order
http://www.bom.gov.au/fwo/IDW60701/IDW60701.94604.json